EW9132 Weather Reports


time (UTC)temp
C
wind
direction
speed
KPH
gust
KPH
rain 1hr
cm
rain 24hr
cm
rain mn
cm
humidity
%
barometer
mb
20260510064003 12 350 20.9 29.0 0.00 0.00 0.00 80 1015.9
20260510063503 12 350 22.5 32.2 0.00 0.00 0.00 80 1015.8
20260510063024 12 347 20.9 25.7 0.00 0.00 0.00 81 1015.8
20260510062503 12 349 20.9 25.7 0.00 0.00 0.00 82 1015.9
20260510062003 12 350 19.3 24.1 0.00 0.00 0.00 82 1015.9
20260510061503 12 348 22.5 32.2 0.00 0.00 0.00 83 1015.9
20260510061003 12 347 19.3 25.7 0.00 0.00 0.00 83 1015.8
20260510060503 12 348 17.7 22.5 0.00 0.00 0.00 83 1015.8
20260510060003 11 347 20.9 29.0 0.00 0.00 0.00 83 1015.9
20260510055503 11 347 19.3 25.7 0.00 0.00 0.00 83 1015.9
20260510055003 11 347 17.7 22.5 0.00 0.00 0.00 83 1015.9
20260510054503 11 349 19.3 25.7 0.00 0.00 0.00 83 1015.8
20260510054003 11 348 16.1 19.3 0.00 0.00 0.00 84 1015.9
20260510053524 11 348 17.7 19.3 0.00 0.00 0.00 84 1015.9
20260510053003 11 350 16.1 20.9 0.00 0.00 0.00 84 1016.0
20260510052503 11 349 17.7 20.9 0.00 0.00 0.00 85 1016.0
20260510052003 11 349 16.1 19.3 0.00 0.00 0.00 85 1015.9
20260510051503 11 349 17.7 20.9 0.00 0.00 0.00 85 1015.9
20260510051003 11 351 16.1 20.9 0.00 0.00 0.00 86 1015.8
20260510050503 11 351 16.1 22.5 0.00 0.00 0.00 86 1015.7
20260510050003 10 351 16.1 20.9 0.00 0.00 0.00 86 1015.7
20260510045524 10 351 16.1 22.5 0.00 0.00 0.00 86 1015.6
20260510045003 10 354 12.9 17.7 0.00 0.00 0.00 87 1015.8
20260510044503 10 358 12.9 17.7 0.00 0.00 0.00 87 1015.9
20260510044003 10 354 14.5 17.7 0.00 0.00 0.00 87 1015.8
20260510043503 10 350 16.1 16.1 0.00 0.00 0.00 87 1015.7
20260510043003 10 352 16.1 20.9 0.00 0.00 0.00 87 1015.8
20260510042503 10 349 16.1 19.3 0.00 0.00 0.00 87 1015.6
20260510042003 10 350 16.1 20.9 0.00 0.00 0.00 87 1015.7
20260510041503 11 348 16.1 20.9 0.00 0.00 0.00 87 1015.7
20260510041003 11 350 16.1 20.9 0.00 0.00 0.00 87 1015.8
20260510040503 11 350 14.5 20.9 0.00 0.00 0.00 87 1015.8
20260510040003 11 351 14.5 16.1 0.00 0.00 0.00 86 1015.8
20260510035503 11 349 14.5 17.7 0.00 0.00 0.00 86 1015.7
20260510035003 11 351 14.5 16.1 0.00 0.00 0.00 86 1015.7
20260510034503 11 350 14.5 16.1 0.00 0.00 0.00 85 1015.6
20260510034003 11 349 16.1 20.9 0.00 0.00 0.00 85 1015.7
20260510033503 11 349 16.1 20.9 0.00 0.00 0.00 85 1015.6
20260510033024 11 353 14.5 19.3 0.00 0.00 0.00 85 1015.5
20260510032503 11 353 14.5 17.7 0.00 0.00 0.00 85 1015.7
20260510032003 11 351 12.9 19.3 0.00 0.00 0.00 85 1015.6
20260510031503 11 352 14.5 16.1 0.00 0.00 0.00 85 1015.6
20260510031003 11 354 12.9 17.7 0.00 0.00 0.00 84 1015.7
20260510030503 11 351 14.5 17.7 0.00 0.00 0.00 84 1015.7
20260510030024 11 352 14.5 19.3 0.00 0.00 0.00 84 1015.7
20260510025503 11 350 16.1 22.5 0.00 0.00 0.00 84 1015.7
20260510025024 11 349 14.5 20.9 0.00 0.00 0.00 83 1015.7
20260510024524 11 349 14.5 16.1 0.00 0.00 0.00 83 1015.7
20260510024003 11 348 12.9 16.1 0.00 0.00 0.00 83 1015.8
20260510023503 11 349 12.9 19.3 0.00 0.00 0.00 83 1015.7
20260510023003 11 351 12.9 12.9 0.00 0.00 0.00 82 1015.9
20260510022503 11 350 12.9 14.5 0.00 0.00 0.00 82 1016.0
20260510022003 11 352 12.9 16.1 0.00 0.00 0.00 82 1015.9
20260510021503 11 349 12.9 16.1 0.00 0.00 0.00 82 1015.9
20260510021003 11 350 11.3 16.1 0.00 0.00 0.00 81 1016.0
20260510020503 11 351 12.9 16.1 0.00 0.00 0.00 81 1016.0
20260510020003 11 350 12.9 16.1 0.00 0.00 0.00 81 1015.9
20260510015503 11 348 12.9 16.1 0.00 0.00 0.00 81 1016.0
20260510015003 11 350 12.9 17.7 0.00 0.00 0.00 81 1016.0
20260510014503 11 351 12.9 17.7 0.00 0.00 0.00 81 1016.0
20260510014003 11 350 12.9 16.1 0.00 0.00 0.00 81 1016.0
20260510013503 11 352 12.9 14.5 0.00 0.00 0.00 81 1016.1
20260510013003 11 351 14.5 16.1 0.00 0.00 0.00 81 1016.1
20260510012503 11 351 12.9 16.1 0.00 0.00 0.00 81 1016.1
20260510012003 11 350 12.9 12.9 0.00 0.00 0.00 80 1016.2
20260510011503 11 347 12.9 16.1 0.00 0.00 0.00 80 1016.1
20260510011003 11 350 12.9 17.7 0.00 0.00 0.00 80 1016.2
20260510010503 11 353 11.3 16.1 0.00 0.00 0.00 80 1016.3
20260510010004 11 351 11.3 14.5 0.00 0.00 0.00 80 1016.4
20260510005503 11 357 9.7 14.5 0.00 0.00 0.00 79 1016.4
20260510005003 11 5 9.7 11.3 0.00 0.00 0.00 79 1016.5
20260510004503 11 352 11.3 14.5 0.00 0.00 0.00 79 1016.5
20260510004003 11 350 11.3 16.1 0.00 0.00 0.00 78 1016.5
20260510003503 11 352 11.3 14.5 0.00 0.00 0.00 77 1016.4
20260510003004 11 349 14.5 16.1 0.00 0.00 0.00 77 1016.5
20260510002503 11 350 12.9 16.1 0.00 0.00 0.00 76 1016.5
20260510002003 11 351 14.5 17.7 0.00 0.00 0.00 76 1016.6
20260510001503 11 353 12.9 16.1 0.00 0.00 0.00 75 1016.6
20260510001003 12 348 14.5 16.1 0.00 0.00 0.00 75 1016.7
20260510000503 12 350 14.5 17.7 0.00 0.00 0.00 74 1016.7
20260510000003 12 349 14.5 17.7 0.00 0.00 0.00 74 1016.7
20260509235503 12 348 14.5 16.1 0.00 0.00 0.00 73 1016.7
20260509235003 12 349 14.5 19.3 0.00 0.00 0.00 72 1016.8
20260509234503 12 351 11.3 16.1 0.00 0.00 0.00 72 1016.9
20260509234003 12 348 12.9 14.5 0.00 0.00 0.00 72 1017.0
20260509233503 12 346 12.9 16.1 0.00 0.00 0.00 72 1016.9
20260509233003 12 348 12.9 16.1 0.00 0.00 0.00 72 1016.9
20260509232503 12 349 12.9 14.5 0.00 0.00 0.00 71 1016.8
20260509232003 12 349 12.9 16.1 0.00 0.00 0.00 71 1016.9
20260509231503 12 349 12.9 16.1 0.00 0.00 0.00 70 1016.9
20260509231003 12 351 12.9 16.1 0.00 0.00 0.00 70 1016.9
20260509230503 12 353 12.9 14.5 0.00 0.00 0.00 69 1016.9
20260509230003 12 350 14.5 14.5 0.00 0.00 0.00 69 1016.9
20260509225503 12 350 14.5 16.1 0.00 0.00 0.00 69 1016.9
20260509225003 12 349 14.5 16.1 0.00 0.00 0.00 69 1016.9
20260509224503 12 351 12.9 17.7 0.00 0.00 0.00 68 1016.9
20260509224003 12 349 14.5 19.3 0.00 0.00 0.00 68 1017.1
20260509223503 12 350 12.9 14.5 0.00 0.00 0.00 69 1017.0
20260509223003 12 349 12.9 14.5 0.00 0.00 0.00 69 1017.0
20260509222503 12 346 14.5 16.1 0.00 0.00 0.00 69 1017.0
20260509222003 12 347 14.5 17.7 0.00 0.00 0.00 69 1017.0
20260509221503 13 349 14.5 16.1 0.00 0.00 0.00 69 1017.0
20260509221003 13 351 14.5 17.7 0.00 0.00 0.00 69 1017.0
20260509220503 13 350 14.5 16.1 0.00 0.00 0.00 69 1017.0
20260509220004 13 348 12.9 16.1 0.00 0.00 0.00 69 1016.9
20260509215503 13 348 12.9 16.1 0.00 0.00 0.00 69 1016.9
20260509215003 13 350 12.9 14.5 0.00 0.00 0.00 69 1017.0
20260509214503 13 349 12.9 16.1 0.00 0.00 0.00 69 1017.0
20260509214003 13 355 11.3 14.5 0.00 0.00 0.00 69 1017.0
20260509213503 13 350 12.9 14.5 0.00 0.00 0.00 69 1016.9
20260509213003 13 351 12.9 19.3 0.00 0.00 0.00 69 1016.9
20260509212503 13 350 12.9 19.3 0.00 0.00 0.00 69 1016.9
20260509212003 13 350 12.9 16.1 0.00 0.00 0.00 69 1017.0
20260509211503 13 350 12.9 14.5 0.00 0.00 0.00 69 1017.0
20260509211003 13 349 12.9 17.7 0.00 0.00 0.00 68 1017.0
20260509210503 13 348 12.9 16.1 0.00 0.00 0.00 68 1016.9
20260509210003 13 348 14.5 17.7 0.00 0.00 0.00 68 1017.0
20260509205503 13 348 14.5 17.7 0.00 0.00 0.00 68 1016.9
20260509205003 13 349 14.5 17.7 0.00 0.00 0.00 68 1016.8
20260509204503 13 351 14.5 17.7 0.00 0.00 0.00 67 1016.8
20260509204003 14 350 14.5 17.7 0.00 0.00 0.00 67 1016.7
20260509203524 14 349 14.5 17.7 0.00 0.00 0.00 67 1016.8
20260509203024 14 351 14.5 16.1 0.00 0.00 0.00 67 1016.7
20260509202503 14 351 14.5 16.1 0.00 0.00 0.00 67 1016.8
20260509202003 14 349 14.5 17.7 0.00 0.00 0.00 67 1016.8
20260509201524 14 347 12.9 16.1 0.00 0.00 0.00 66 1016.8
20260509201024 15 346 16.1 17.7 0.00 0.00 0.00 66 1016.7
20260509200503 15 352 16.1 20.9 0.00 0.00 0.00 66 1016.6
20260509200003 15 352 16.1 20.9 0.00 0.00 0.00 66 1016.7
20260509195524 15 347 17.7 22.5 0.00 0.00 0.00 65 1016.7
20260509195024 15 349 17.7 20.9 0.00 0.00 0.00 65 1016.6
20260509194525 15 350 17.7 20.9 0.00 0.00 0.00 66 1016.4
20260509194003 15 354 14.5 19.3 0.00 0.00 0.00 66 1016.3
20260509193524 15 350 17.7 19.3 0.00 0.00 0.00 65 1016.3
20260509193024 15 350 17.7 22.5 0.00 0.00 0.00 65 1016.1
20260509192503 15 350 17.7 24.1 0.00 0.00 0.00 65 1016.2
20260509192003 16 350 17.7 22.5 0.00 0.00 0.00 65 1016.1
20260509191524 16 348 14.5 22.5 0.00 0.00 0.00 65 1016.1
20260509191024 16 351 14.5 14.5 0.00 0.00 0.00 65 1016.1
20260509190524 16 349 17.7 20.9 0.00 0.00 0.00 64 1016.1
20260509190003 16 350 19.3 20.9 0.00 0.00 0.00 63 1016.1
20260509185524 16 349 19.3 20.9 0.00 0.00 0.00 63 1016.1
20260509185003 17 349 19.3 25.7 0.00 0.00 0.00 63 1016.1
20260509184503 17 349 19.3 29.0 0.00 0.00 0.00 62 1016.1
20260509184003 17 351 19.3 30.6 0.00 0.00 0.00 61 1016.0
20260509183503 17 349 19.3 24.1 0.00 0.00 0.00 61 1016.0
20260509183024 17 351 14.5 17.7 0.00 0.00 0.00 61 1016.1
20260509182503 18 348 19.3 22.5 0.00 0.00 0.00 60 1016.1
20260509182003 18 350 20.9 25.7 0.00 0.00 0.00 59 1016.0
20260509181503 18 348 19.3 22.5 0.00 0.00 0.00 59 1016.0
20260509181003 18 345 22.5 22.5 0.00 0.00 0.00 58 1016.0
20260509180503 18 349 20.9 25.7 0.00 0.00 0.00 58 1015.8
20260509180003 19 347 19.3 29.0 0.00 0.00 0.00 58 1015.8
20260509175524 19 343 22.5 29.0 0.00 0.00 0.00 57 1016.0
20260509175003 19 346 24.1 24.1 0.00 0.00 0.00 57 1016.0
20260509174524 19 345 22.5 37.0 0.00 0.00 0.00 57 1016.0
20260509174003 20 348 22.5 29.0 0.00 0.00 0.00 57 1015.9
20260509173503 20 345 22.5 32.2 0.00 0.00 0.00 56 1015.9
20260509173003 20 349 22.5 29.0 0.00 0.00 0.00 55 1015.8
20260509172503 20 346 22.5 22.5 0.00 0.00 0.00 56 1015.8
20260509172003 20 348 22.5 25.7 0.00 0.00 0.00 55 1015.8
20260509171503 20 339 22.5 32.2 0.00 0.00 0.00 55 1015.7
20260509171003 21 341 19.3 29.0 0.00 0.00 0.00 54 1015.7
20260509170504 21 351 12.9 14.5 0.00 0.00 0.00 50 1015.6
20260509170003 21 346 12.9 17.7 0.00 0.00 0.00 48 1015.6
20260509165503 21 23 8.0 14.5 0.00 0.00 0.00 50 1015.5
20260509165024 21 16 8.0 9.7 0.00 0.00 0.00 48 1015.6
20260509164503 21 33 4.8 9.7 0.00 0.00 0.00 49 1015.5
20260509164003 21 15 6.4 8.0 0.00 0.00 0.00 49 1015.5
20260509163503 21 358 11.3 14.5 0.00 0.00 0.00 47 1015.6
20260509163003 22 16 9.7 12.9 0.00 0.00 0.00 47 1015.6
20260509162503 22 34 6.4 9.7 0.00 0.00 0.00 48 1015.6
20260509162003 22 17 9.7 11.3 0.00 0.00 0.00 47 1015.6
20260509161503 22 42 6.4 9.7 0.00 0.00 0.00 49 1015.7
20260509161024 22 30 8.0 16.1 0.00 0.00 0.00 49 1015.7
20260509160503 21 30 6.4 8.0 0.00 0.00 0.00 50 1015.7
20260509160003 21 350 11.3 14.5 0.00 0.00 0.00 48 1015.8
20260509155504 22 12 9.7 12.9 0.00 0.00 0.00 47 1015.9
20260509155003 22 356 9.7 16.1 0.00 0.00 0.00 49 1015.8
20260509154503 22 358 11.3 12.9 0.00 0.00 0.00 46 1015.9
20260509154024 22 9 9.7 16.1 0.00 0.00 0.00 48 1016.0
20260509153503 22 13 9.7 16.1 0.00 0.00 0.00 49 1016.0
20260509153024 22 41 3.2 17.7 0.00 0.00 0.00 51 1016.1
20260509152503 22 12 6.4 25.7 0.00 0.00 0.00 50 1016.0
20260509152003 22 48 4.8 9.7 0.00 0.00 0.00 48 1016.0
20260509151503 21 34 6.4 9.7 0.00 0.00 0.00 48 1015.9
20260509151003 21 30 6.4 14.5 0.00 0.00 0.00 49 1016.0
20260509150503 22 25 9.7 11.3 0.00 0.00 0.00 48 1016.0
20260509150003 22 13 11.3 12.9 0.00 0.00 0.00 48 1016.0
20260509145503 22 348 14.5 17.7 0.00 0.00 0.00 47 1015.9
20260509145003 22 5 12.9 19.3 0.00 0.00 0.00 48 1016.0
20260509144503 22 11 11.3 19.3 0.00 0.00 0.00 48 1016.0
20260509144003 23 20 11.3 16.1 0.00 0.00 0.00 47 1016.0
20260509143503 23 65 3.2 12.9 0.00 0.00 0.00 48 1016.0
20260509143003 22 85 3.2 4.8 0.00 0.00 0.00 48 1016.1
20260509142503 22 49 3.2 8.0 0.00 0.00 0.00 50 1016.2
20260509142003 22 44 3.2 3.2 0.00 0.00 0.00 52 1016.2
20260509141503 22 28 8.0 12.9 0.00 0.00 0.00 47 1016.3
20260509141003 22 351 9.7 11.3 0.00 0.00 0.00 47 1016.3
20260509140503 22 8 9.7 9.7 0.00 0.00 0.00 46 1016.4
20260509140003 22 8 11.3 16.1 0.00 0.00 0.00 45 1016.4
20260509135503 23 25 6.4 11.3 0.00 0.00 0.00 45 1016.3
20260509135003 23 85 4.8 9.7 0.00 0.00 0.00 50 1016.3
20260509134503 23 49 4.8 6.4 0.00 0.00 0.00 50 1016.5
20260509134003 23 7 8.0 11.3 0.00 0.00 0.00 48 1016.5
20260509133503 23 45 4.8 12.9 0.00 0.00 0.00 50 1016.5
20260509133003 22 33 8.0 9.7 0.00 0.00 0.00 47 1016.6
20260509132503 22 38 8.0 17.7 0.00 0.00 0.00 49 1016.6
20260509132003 22 31 9.7 9.7 0.00 0.00 0.00 49 1016.6
20260509131503 22 38 8.0 11.3 0.00 0.00 0.00 51 1016.6
20260509131003 22 37 8.0 12.9 0.00 0.00 0.00 51 1016.7
20260509130503 22 17 4.8 14.5 0.00 0.00 0.00 52 1016.8
20260509130003 21 18 4.8 4.8 0.00 0.00 0.00 53 1016.8
20260509125503 21 19 11.3 14.5 0.00 0.00 0.00 52 1016.9
20260509125003 21 25 9.7 14.5 0.00 0.00 0.00 49 1016.8
20260509124503 21 2 9.7 9.7 0.00 0.00 0.00 51 1016.9
20260509124003 21 3 12.9 16.1 0.00 0.00 0.00 51 1017.1
20260509123503 21 7 11.3 17.7 0.00 0.00 0.00 51 1017.1
20260509123003 21 16 12.9 14.5 0.00 0.00 0.00 51 1017.1
20260509122503 22 7 9.7 14.5 0.00 0.00 0.00 52 1017.1
20260509122003 22 11 11.3 16.1 0.00 0.00 0.00 51 1017.3
20260509121503 22 356 6.4 16.1 0.00 0.00 0.00 52 1017.2
20260509121003 21 35 6.4 9.7 0.00 0.00 0.00 53 1017.3
20260509120503 21 27 11.3 16.1 0.00 0.00 0.00 53 1017.3
20260509120003 21 22 12.9 12.9 0.00 0.00 0.00 55 1017.4
20260509115503 21 11 11.3 19.3 0.00 0.00 0.00 54 1017.4
20260509115003 21 11 11.3 16.1 0.00 0.00 0.00 55 1017.5
20260509114503 21 14 9.7 17.7 0.00 0.00 0.00 52 1017.5
20260509114003 21 11 9.7 19.3 0.00 0.00 0.00 53 1017.6
20260509113503 21 44 6.4 11.3 0.00 0.00 0.00 58 1017.6
20260509113003 21 357 12.9 17.7 0.00 0.00 0.00 53 1017.7
20260509112503 21 10 11.3 19.3 0.00 0.00 0.00 53 1017.7
20260509112003 21 22 12.9 20.9 0.00 0.00 0.00 53 1017.7
20260509111503 21 20 9.7 20.9 0.00 0.00 0.00 56 1017.8
20260509111003 21 41 9.7 20.9 0.00 0.00 0.00 55 1017.9
20260509110503 21 33 9.7 14.5 0.00 0.00 0.00 56 1018.0
20260509110003 21 24 12.9 12.9 0.00 0.00 0.00 55 1017.9
20260509105503 21 9 11.3 16.1 0.00 0.00 0.00 56 1017.9
20260509105003 21 8 11.3 19.3 0.00 0.00 0.00 56 1018.0
20260509104503 21 24 11.3 14.5 0.00 0.00 0.00 54 1018.1
20260509104003 21 51 8.0 17.7 0.00 0.00 0.00 56 1018.1
20260509103503 21 45 8.0 12.9 0.00 0.00 0.00 53 1018.1
20260509103003 21 47 6.4 12.9 0.00 0.00 0.00 56 1018.1
20260509102503 21 53 6.4 9.7 0.00 0.00 0.00 57 1018.1
20260509102003 20 40 8.0 12.9 0.00 0.00 0.00 57 1018.1
20260509101503 20 29 9.7 11.3 0.00 0.00 0.00 58 1018.2
20260509101003 20 41 6.4 16.1 0.00 0.00 0.00 60 1018.3
20260509100503 20 39 8.0 11.3 0.00 0.00 0.00 58 1018.2
20260509100004 20 28 11.3 19.3 0.00 0.00 0.00 55 1018.2
20260509095503 20 22 12.9 19.3 0.00 0.00 0.00 56 1018.2
20260509095003 20 8 14.5 16.1 0.00 0.00 0.00 57 1018.2
20260509094503 20 13 11.3 19.3 0.00 0.00 0.00 57 1018.2
20260509094003 20 47 6.4 12.9 0.00 0.00 0.00 58 1018.2
20260509093503 20 29 8.0 12.9 0.00 0.00 0.00 59 1018.3
20260509093003 20 19 9.7 14.5 0.00 0.00 0.00 59 1018.4
20260509092503 19 15 11.3 16.1 0.00 0.00 0.00 59 1018.4
20260509092003 19 16 11.3 16.1 0.00 0.00 0.00 58 1018.4
20260509091503 19 12 11.3 14.5 0.00 0.00 0.00 59 1018.4
20260509091003 19 16 11.3 16.1 0.00 0.00 0.00 60 1018.4
20260509090503 19 45 4.8 9.7 0.00 0.00 0.00 62 1018.4
20260509090003 19 45 6.4 9.7 0.00 0.00 0.00 62 1018.4
20260509085503 19 26 8.0 8.0 0.00 0.00 0.00 61 1018.4
20260509085024 19 21 8.0 9.7 0.00 0.00 0.00 62 1018.3
20260509084503 18 26 6.4 12.9 0.00 0.00 0.00 63 1018.4
20260509084003 18 36 6.4 8.0 0.00 0.00 0.00 63 1018.4
20260509083503 18 40 4.8 8.0 0.00 0.00 0.00 64 1018.5
20260509083003 18 36 6.4 11.3 0.00 0.00 0.00 63 1018.5
20260509082524 18 44 4.8 11.3 0.00 0.00 0.00 66 1018.4
20260509082003 18 28 4.8 6.4 0.00 0.00 0.00 65 1018.4
20260509081524 17 40 3.2 8.0 0.00 0.00 0.00 66 1018.4
20260509081003 17 39 4.8 8.0 0.00 0.00 0.00 66 1018.5
20260509080503 17 35 6.4 11.3 0.00 0.00 0.00 67 1018.6
20260509080005 17 40 4.8 8.0 0.00 0.00 0.00 68 1018.6
20260509075503 16 69 3.2 6.4 0.00 0.00 0.00 72 1018.6
20260509075024 16 49 3.2 3.2 0.00 0.00 0.00 71 1018.6
20260509074503 16 33 6.4 8.0 0.00 0.00 0.00 70 1018.7
20260509074003 16 31 6.4 12.9 0.00 0.00 0.00 71 1018.7
20260509073503 15 47 4.8 8.0 0.00 0.00 0.00 72 1018.7
20260509073003 15 41 6.4 8.0 0.00 0.00 0.00 72 1018.7
20260509072503 15 60 4.8 8.0 0.00 0.00 0.00 73 1018.8
20260509072003 15 39 8.0 9.7 0.00 0.00 0.00 72 1018.8
20260509071524 15 30 8.0 11.3 0.00 0.00 0.00 73 1018.8
20260509071024 14 27 8.0 12.9 0.00 0.00 0.00 73 1018.8
20260509070524 14 31 6.4 9.7 0.00 0.00 0.00 75 1018.7
20260509070024 13 29 8.0 12.9 0.00 0.00 0.00 74 1018.7
20260509065524 13 30 8.0 9.7 0.00 0.00 0.00 75 1018.7
20260509065004 13 21 9.7 14.5 0.00 0.00 0.00 75 1018.7
20260509064503 13 20 9.7 12.9 0.00 0.00 0.00 76 1018.7